DW7854 Weather Reports


time (UTC)temp
C
wind
direction
speed
KPH
gust
KPH
rain 1hr
cm
rain 24hr
cm
rain mn
cm
humidity
%
barometer
mb
20260904005604 32 132 1.6 4.8 0.00 0.00 0.00 61 1010.5
20260904004704 32 148 3.2 4.8 0.00 0.00 0.00 60 1010.6
20260904004505 32 132 1.6 4.8 0.00 0.00 0.00 60 1010.3
20260904003804 32 150 3.2 6.4 0.00 0.00 0.00 59 1010.6
20260904003105 32 150 1.6 8.0 0.00 0.00 0.00 59 1010.2
20260904002904 33 151 3.2 6.4 0.00 0.00 0.00 59 1010.5
20260904002004 33 149 4.8 8.0 0.00 0.00 0.00 58 1010.5
20260904001104 33 147 4.8 8.0 0.00 0.00 0.00 57 1010.5
20260904000204 33 146 6.4 9.7 0.00 0.00 0.00 56 1010.4
20260904000104 33 163 4.8 9.7 0.00 0.00 0.00 56 1010.2
20260903235305 33 157 6.4 11.3 0.00 0.00 0.00 56 1010.4
20260903234614 33 155 6.4 16.1 0.00 0.00 0.00 55 1010.2
20260903234404 34 142 6.4 12.9 0.00 0.00 0.00 54 1010.5
20260903233504 34 121 8.0 14.5 0.00 0.00 0.00 53 1010.5
20260903233003 34 87 8.0 16.1 0.00 0.00 0.00 53 1010.3
20260903232604 35 125 4.8 16.1 0.00 0.00 0.00 52 1010.5
20260903231704 35 145 6.4 11.3 0.00 0.00 0.00 52 1010.5
20260903231508 35 181 4.8 12.9 0.00 0.00 0.00 52 1010.2
20260903230804 35 150 8.0 17.7 0.00 0.00 0.00 51 1010.5
20260903230107 35 105 8.0 17.7 0.00 0.00 0.00 51 1010.2
20260903225904 35 139 8.0 17.7 0.00 0.00 0.00 50 1010.5
20260903225004 35 149 9.7 16.1 0.00 0.00 0.00 50 1010.5
20260903224604 35 161 9.7 16.1 0.00 0.00 0.00 50 1010.3
20260903224104 35 138 6.4 16.1 0.00 0.00 0.00 49 1010.5
20260903223204 35 128 8.0 14.5 0.00 0.00 0.00 50 1010.5
20260903223104 35 130 4.8 14.5 0.00 0.00 0.00 50 1010.3
20260903222306 35 144 8.0 14.5 0.00 0.00 0.00 50 1010.6
20260903221505 35 161 8.0 14.5 0.00 0.00 0.00 49 1010.3
20260903221404 35 140 6.4 14.5 0.00 0.00 0.00 51 1010.6
20260903220006 35 140 9.7 16.1 0.00 0.00 0.00 50 1010.5
20260903215604 35 149 8.0 16.1 0.00 0.00 0.00 51 1010.8
20260903214704 35 150 8.0 16.1 0.00 0.00 0.00 52 1010.9
20260903214513 35 111 4.8 16.1 0.00 0.00 0.00 52 1010.7
20260903213804 35 144 8.0 17.7 0.00 0.00 0.00 52 1011.0
20260903213004 35 217 6.4 12.9 0.00 0.00 0.00 50 1010.8
20260903212904 36 140 4.8 12.9 0.00 0.00 0.00 51 1011.1
20260903211506 35 130 8.0 17.7 0.00 0.00 0.00 53 1011.0
20260903211104 35 145 9.7 17.7 0.00 0.00 0.00 55 1011.4
20260903210204 35 163 11.3 17.7 0.00 0.00 0.00 54 1011.5
20260903210008 35 163 9.7 17.7 0.00 0.00 0.00 53 1011.1
20260903205306 35 146 8.0 14.5 0.00 0.00 0.00 54 1011.5
20260903204504 34 148 8.0 14.5 0.00 0.00 0.00 55 1011.3
20260903204404 35 159 9.7 17.7 0.00 0.00 0.00 55 1011.6
20260903203008 34 97 8.0 17.7 0.00 0.00 0.00 55 1011.5
20260903201704 36 168 9.7 19.3 0.00 0.00 0.00 54 1011.9
20260903201504 35 138 8.0 17.7 0.00 0.00 0.00 53 1011.6
20260903200804 35 168 8.0 19.3 0.00 0.00 0.00 56 1012.0
20260903200006 34 175 6.4 19.3 0.00 0.00 0.00 57 1011.8
20260903195904 34 156 6.4 12.9 0.00 0.00 0.00 58 1012.1
20260903195004 34 144 8.0 17.7 0.00 0.00 0.00 57 1012.2
20260903194603 34 140 6.4 17.7 0.00 0.00 0.00 58 1011.9
20260903194104 34 139 6.4 17.7 0.00 0.00 0.00 60 1012.3
20260903193204 33 149 9.7 17.7 0.00 0.00 0.00 61 1012.5
20260903193009 33 132 4.8 17.7 0.00 0.00 0.00 60 1012.2
20260903192306 34 168 8.0 17.7 0.00 0.00 0.00 60 1012.6
20260903191603 33 208 8.0 16.1 0.00 0.00 0.00 61 1012.3
20260903191404 33 154 8.0 16.1 0.00 0.00 0.00 61 1012.7
20260903190504 34 155 8.0 17.7 0.00 0.00 0.00 59 1012.8
20260903190006 33 181 8.0 19.3 0.00 0.00 0.00 59 1012.6
20260903185604 34 153 11.3 19.3 0.00 0.00 0.00 59 1013.0
20260903184508 33 128 6.4 17.7 0.00 0.00 0.00 59 1012.7
20260903183804 35 161 11.3 20.9 0.00 0.00 0.00 59 1013.1
20260903183103 34 142 11.3 22.5 0.00 0.00 0.00 59 1012.9
20260903182904 34 160 9.7 22.5 0.00 0.00 0.00 60 1013.2
20260903182004 34 162 9.7 19.3 0.00 0.00 0.00 60 1013.3
20260903181604 33 156 8.0 19.3 0.00 0.00 0.00 62 1013.0
20260903181104 33 151 11.3 20.9 0.00 0.00 0.00 62 1013.4
20260903180204 33 138 8.0 14.5 0.00 0.00 0.00 62 1013.5
20260903180106 33 136 6.4 14.5 0.00 0.00 0.00 64 1013.2
20260903175306 33 142 8.0 14.5 0.00 0.00 0.00 62 1013.6
20260903174504 33 140 8.0 16.1 0.00 0.00 0.00 63 1013.5
20260903174404 33 163 11.3 16.1 0.00 0.00 0.00 62 1013.7
20260903173504 33 167 8.0 20.9 0.00 0.00 0.00 63 1013.9
20260903173013 33 174 3.2 12.9 0.00 0.00 0.00 63 1013.7
20260903172604 33 152 8.0 14.5 0.00 0.00 0.00 62 1014.1
20260903171704 33 171 9.7 19.3 0.00 0.00 0.00 63 1014.2
20260903171508 33 184 9.7 19.3 0.00 0.00 0.00 64 1013.9
20260903170804 32 176 6.4 16.1 0.00 0.00 0.00 65 1014.3
20260903170105 32 146 8.0 16.1 0.00 0.00 0.00 67 1014.0
20260903165904 32 145 6.4 14.5 0.00 0.00 0.00 67 1014.3
20260903165004 32 149 4.8 12.9 0.00 0.00 0.00 68 1014.6
20260903164607 31 122 4.8 12.9 0.00 0.00 0.00 69 1014.1
20260903164104 32 165 8.0 12.9 0.00 0.00 0.00 67 1014.6
20260903163204 32 138 8.0 16.1 0.00 0.00 0.00 67 1014.7
20260903163002 32 115 6.4 16.1 0.00 0.00 0.00 68 1014.4
20260903162306 32 159 8.0 14.5 0.00 0.00 0.00 68 1014.6
20260903161503 31 163 8.0 16.1 0.00 0.00 0.00 69 1014.4
20260903161404 31 145 8.0 16.1 0.00 0.00 0.00 70 1014.7
20260903160504 31 174 6.4 14.5 0.00 0.00 0.00 71 1014.7
20260903160003 31 177 6.4 19.3 0.00 0.00 0.00 70 1014.3
20260903155604 31 158 8.0 19.3 0.00 0.00 0.00 71 1014.7
20260903154704 30 147 6.4 12.9 0.00 0.00 0.00 73 1014.6
20260903154503 30 136 4.8 12.9 0.00 0.00 0.00 73 1014.4
20260903153804 30 166 8.0 14.5 0.00 0.00 0.00 73 1014.6
20260903153003 30 194 6.4 16.1 0.00 0.00 0.00 72 1014.3
20260903152904 30 159 9.7 16.1 0.00 0.00 0.00 72 1014.5
20260903152004 30 144 8.0 14.5 0.00 0.00 0.00 73 1014.5
20260903151505 30 159 9.7 14.5 0.00 0.00 0.00 73 1014.1
20260903151104 30 158 8.0 12.9 0.00 0.00 0.00 72 1014.5
20260903150204 30 139 6.4 16.1 0.00 0.00 0.00 74 1014.5
20260903150003 30 177 6.4 12.9 0.00 0.00 0.00 74 1014.2
20260903145306 30 147 6.4 11.3 0.00 0.00 0.00 73 1014.6
20260903144505 30 163 4.8 12.9 0.00 0.00 0.00 75 1014.3
20260903144404 30 169 4.8 11.3 0.00 0.00 0.00 75 1014.6
20260903143504 29 169 4.8 9.7 0.00 0.00 0.00 76 1014.7
20260903143006 28 135 4.8 9.7 0.00 0.00 0.00 77 1014.3
20260903142604 29 158 4.8 9.7 0.00 0.00 0.00 77 1014.7
20260903141704 28 148 3.2 11.3 0.00 0.00 0.00 80 1014.8
20260903141506 28 144 1.6 11.3 0.00 0.00 0.00 80 1014.5
20260903140804 28 151 4.8 11.3 0.00 0.00 0.00 83 1014.8
20260903140103 27 205 4.8 8.0 0.00 0.00 0.00 84 1014.6
20260903135904 27 167 4.8 8.0 0.00 0.00 0.00 84 1014.9
20260903135004 27 136 3.2 8.0 0.00 0.00 0.00 86 1014.9
20260903134505 26 86 1.6 8.0 0.00 0.00 0.00 86 1014.7
20260903134104 26 143 3.2 8.0 0.00 0.00 0.00 87 1015.0
20260903133003 26 127 3.2 6.4 0.00 0.00 0.00 89 1014.7
20260903132306 26 130 3.2 8.0 0.00 0.00 0.00 91 1015.0
20260903131611 25 102 1.6 6.4 0.00 0.00 0.00 92 1014.7
20260903131404 25 120 1.6 6.4 0.00 0.00 0.00 92 1014.9
20260903130504 25 265 1.6 4.8 0.00 0.00 0.00 94 1015.0
20260903130005 24 265 1.6 4.8 0.00 0.00 0.00 94 1014.7
20260903124704 24 52 0.0 1.6 0.00 0.00 0.00 94 1014.8
20260903124505 23 51 0.0 1.6 0.00 0.00 0.00 94 1014.6
20260903123003 23 355 0.0 0.0 0.00 0.00 0.00 93 1014.5
20260903122904 23 0 0.0 0.0 0.00 0.00 0.00 93 1014.7
20260903122004 24 0 0.0 0.0 0.00 0.00 0.00 93 1014.7
20260903121504 23 82 0.0 0.0 0.00 0.00 0.00 93 1014.4
20260903121104 24 0 0.0 0.0 0.00 0.00 0.00 93 1014.6
20260903120204 24 0 0.0 0.0 0.00 0.00 0.00 93 1014.5
20260903115305 24 0 0.0 0.0 0.00 0.00 0.00 93 1014.4
20260903114605 23 82 0.0 0.0 0.00 0.00 0.00 93 1014.1
20260903113504 24 0 0.0 0.0 0.00 0.00 0.00 93 1014.3
20260903113003 23 84 0.0 0.0 0.00 0.00 0.00 93 1014.0
20260903112604 24 0 0.0 0.0 0.00 0.00 0.00 93 1014.2
20260903111505 23 65 0.0 0.0 0.00 0.00 0.00 92 1013.9
20260903110106 23 105 0.0 0.0 0.00 0.00 0.00 92 1013.9
20260903105904 24 0 0.0 0.0 0.00 0.00 0.00 92 1014.2
20260903104503 23 105 0.0 0.0 0.00 0.00 0.00 93 1013.8
20260903104104 24 114 0.0 3.2 0.00 0.00 0.00 93 1014.1
20260903103204 24 129 1.6 4.8 0.00 0.00 0.00 93 1014.1
20260903103103 23 134 0.0 4.8 0.00 0.00 0.00 93 1013.8
20260903102306 24 133 1.6 3.2 0.00 0.00 0.00 93 1014.0
20260903101604 23 132 0.0 3.2 0.00 0.00 0.00 93 1013.7
20260903100504 24 133 0.0 4.8 0.00 0.00 0.00 92 1014.1
20260903100004 23 114 0.0 3.2 0.00 0.00 0.00 92 1013.8
20260903095604 24 109 1.6 3.2 0.00 0.00 0.00 92 1014.1
20260903094704 24 64 0.0 3.2 0.00 0.00 0.00 92 1013.9
20260903094611 23 71 0.0 1.6 0.00 0.00 0.00 92 1013.6
20260903093007 24 61 0.0 3.2 0.00 0.00 0.00 92 1013.7
20260903092904 24 61 1.6 4.8 0.00 0.00 0.00 92 1014.0
20260903092004 24 61 0.0 4.8 0.00 0.00 0.00 91 1013.9
20260903091516 24 61 0.0 3.2 0.00 0.00 0.00 91 1013.6
20260903091104 24 62 0.0 1.6 0.00 0.00 0.00 91 1013.9
20260903090204 24 61 0.0 3.2 0.00 0.00 0.00 91 1013.9
20260903090005 24 61 0.0 3.2 0.00 0.00 0.00 91 1013.6
20260903085306 24 61 0.0 3.2 0.00 0.00 0.00 91 1013.7
20260903084605 24 61 0.0 4.8 0.00 0.00 0.00 91 1013.4
20260903084404 24 43 1.6 4.8 0.00 0.00 0.00 91 1013.6
20260903083103 24 45 0.0 1.6 0.00 0.00 0.00 90 1013.3
20260903082604 25 45 0.0 1.6 0.00 0.00 0.00 90 1013.6
20260903081513 24 45 0.0 3.2 0.00 0.00 0.00 89 1013.3
20260903080804 25 96 0.0 3.2 0.00 0.00 0.00 89 1013.5
20260903080003 25 145 0.0 1.6 0.00 0.00 0.00 88 1013.2
20260903075904 25 146 0.0 1.6 0.00 0.00 0.00 88 1013.4
20260903075004 25 146 0.0 1.6 0.00 0.00 0.00 88 1013.3
20260903074604 25 146 0.0 1.6 0.00 0.00 0.00 88 1013.1
20260903074104 25 146 0.0 1.6 0.00 0.00 0.00 87 1013.3
20260903073204 25 146 0.0 1.6 0.00 0.00 0.00 86 1013.4
20260903073008 25 146 0.0 1.6 0.00 0.00 0.00 86 1013.1
20260903071604 25 146 0.0 3.2 0.00 0.00 0.00 86 1013.1
20260903071404 25 136 0.0 3.2 0.00 0.00 0.00 87 1013.4
20260903070504 25 143 1.6 4.8 0.00 0.00 0.00 87 1013.4
20260903070105 25 136 0.0 4.8 0.00 0.00 0.00 86 1013.1
20260903065604 25 147 1.6 3.2 0.00 0.00 0.00 86 1013.5
20260903064704 25 134 1.6 4.8 0.00 0.00 0.00 86 1013.5
20260903064504 25 139 0.0 4.8 0.00 0.00 0.00 86 1013.2
20260903063005 25 156 1.6 6.4 0.00 0.00 0.00 85 1013.1
20260903062904 26 144 1.6 6.4 0.00 0.00 0.00 85 1013.4
20260903062004 26 144 1.6 4.8 0.00 0.00 0.00 84 1013.4
20260903061506 25 148 1.6 4.8 0.00 0.00 0.00 84 1013.3
20260903061104 26 162 1.6 4.8 0.00 0.00 0.00 84 1013.5
20260903060204 26 168 1.6 4.8 0.00 0.00 0.00 83 1013.5
20260903060004 26 168 0.0 4.8 0.00 0.00 0.00 83 1013.3
20260903054604 26 161 0.0 4.8 0.00 0.00 0.00 82 1013.2
20260903054404 26 144 1.6 4.8 0.00 0.00 0.00 82 1013.5
20260903053008 26 146 0.0 4.8 0.00 0.00 0.00 81 1013.2
20260903052604 26 173 3.2 6.4 0.00 0.00 0.00 81 1013.6
20260903051704 26 158 3.2 4.8 0.00 0.00 0.00 81 1013.6
20260903051505 26 162 1.6 4.8 0.00 0.00 0.00 80 1013.3
20260903050804 26 164 1.6 4.8 0.00 0.00 0.00 80 1013.5
20260903050104 26 166 1.6 4.8 0.00 0.00 0.00 79 1013.2
20260903045904 27 136 1.6 4.8 0.00 0.00 0.00 79 1013.4
20260903045004 27 163 3.2 8.0 0.00 0.00 0.00 78 1013.4
20260903044605 26 167 1.6 8.0 0.00 0.00 0.00 78 1013.1
20260903044104 27 152 3.2 8.0 0.00 0.00 0.00 78 1013.4
20260903043103 27 167 1.6 9.7 0.00 0.00 0.00 77 1013.0
20260903042306 27 142 3.2 9.7 0.00 0.00 0.00 77 1013.3
20260903041504 27 141 3.2 8.0 0.00 0.00 0.00 77 1013.1
20260903040504 27 131 1.6 6.4 0.00 0.00 0.00 76 1013.3
20260903040105 27 136 0.0 8.0 0.00 0.00 0.00 76 1013.0
20260903035604 27 110 1.6 8.0 0.00 0.00 0.00 76 1013.3
20260903034704 27 119 1.6 8.0 0.00 0.00 0.00 75 1013.3
20260903034503 27 135 1.6 6.4 0.00 0.00 0.00 75 1013.0
20260903033804 27 130 1.6 8.0 0.00 0.00 0.00 75 1013.4
20260903033008 27 148 0.0 6.4 0.00 0.00 0.00 75 1013.1
20260903032904 27 138 3.2 4.8 0.00 0.00 0.00 75 1013.4
20260903032003 28 145 3.2 8.0 0.00 0.00 0.00 74 1013.4
20260903031502 27 153 3.2 9.7 0.00 0.00 0.00 74 1013.1
20260903031103 28 149 3.2 9.7 0.00 0.00 0.00 73 1013.5
20260903030203 28 142 3.2 6.4 0.00 0.00 0.00 73 1013.5
20260903030008 28 159 1.6 8.0 0.00 0.00 0.00 73 1013.2
20260903025306 28 149 3.2 8.0 0.00 0.00 0.00 73 1013.6
20260903024502 28 134 3.2 9.7 0.00 0.00 0.00 72 1013.2
20260903023504 28 149 3.2 8.0 0.00 0.00 0.00 72 1013.4
20260903023007 28 142 4.8 8.0 0.00 0.00 0.00 71 1013.1
20260903021704 28 144 1.6 4.8 0.00 0.00 0.00 70 1013.2
20260903021603 28 159 0.0 4.8 0.00 0.00 0.00 70 1012.9
20260903020803 29 151 1.6 4.8 0.00 0.00 0.00 70 1013.1
20260903020006 29 166 0.0 4.8 0.00 0.00 0.00 69 1012.7
20260903015904 29 146 3.2 4.8 0.00 0.00 0.00 69 1013.0
20260903015004 29 134 1.6 4.8 0.00 0.00 0.00 69 1012.9
20260903014605 29 135 1.6 8.0 0.00 0.00 0.00 69 1012.6
20260903013203 30 138 1.6 6.4 0.00 0.00 0.00 68 1012.7
20260903013004 30 156 1.6 4.8 0.00 0.00 0.00 68 1012.4
20260903012306 30 137 1.6 6.4 0.00 0.00 0.00 68 1012.7
20260903011502 30 128 1.6 6.4 0.00 0.00 0.00 68 1012.4
20260903011404 30 146 3.2 6.4 0.00 0.00 0.00 67 1012.8
20260903010503 30 148 3.2 8.0 0.00 0.00 0.00 67 1012.7